Location: Killam
(52.7910°N, 111.8608°W)
Time: 00:14:54
(UTC+00:00)

CUTE 1.7 + AOD 2 - Visible Passes

Search period start: 14 March 2026 00:00
Search period end: 24 March 2026 00:00
Orbit: 535 x 547 km, 97.8° (Epoch: 13 March)

Date Brightness Start Highest point End Pass type
(mag) Time Alt. Az. Time Alt. Az. Time Alt. Az.
14 Mar ? 10:41:50 10° ENE 10:43:39 13° E 10:45:29 10° ESE visible
14 Mar ? 12:14:46 10° NNE 12:18:43 79° WNW 12:22:39 10° SSW visible
15 Mar ? 10:35:25 10° ENE 10:36:28 11° E 10:37:31 10° ESE visible
15 Mar ? 12:07:39 10° NNE 12:11:37 88° E 12:15:34 10° SSW visible
16 Mar ? 12:00:33 10° NNE 12:04:30 75° ESE 12:08:26 10° S visible
17 Mar ? 11:53:26 10° NNE 11:57:21 63° ESE 12:01:16 10° S visible
18 Mar ? 11:46:19 10° NNE 11:50:11 53° E 11:54:03 10° S visible
19 Mar ? 11:39:12 10° NNE 11:43:00 44° E 11:46:47 10° S visible
20 Mar ? 11:32:05 10° NNE 11:35:47 37° E 11:39:28 10° SSE visible
21 Mar ? 11:24:58 10° NNE 11:28:33 32° E 11:32:06 10° SSE visible
22 Mar ? 11:17:52 10° NE 11:21:17 27° E 11:24:41 10° SSE visible
23 Mar ? 11:10:47 10° NE 11:14:00 23° E 11:17:12 10° SSE visible
23 Mar ? 12:44:57 10° N 12:48:40 41° WNW 12:52:23 10° SW visible
